ONEWEB-0252 (48970 NORAD) Tracking and Keplerian Element Data

This shows tracking and keplerian element data for the satellite.

Feedback or suggestion? Click here.




ElementValue
Catalog48970
NameONEWEB-0252
Epoch Orbit568
Epoch Day211.25001157
Epoch Year2021
RAAN227.3936
Inclination87.4575
Eccentricity0.001127
Argument of Perigee159.2615
Mean Anonmoly72.2878
Mean Motion15.00016099
Decay Rate-0.01437249
L11 48970U 21060D 21211.25001157 -.01437249 00000-0 -12631+0 0 9999
L22 48970 87.4575 227.3936 0011270 159.2615 72.2878 15.00016099 5682

Live tracking and technical data element details for ONEWEB-0252 (NORAD 48970). ONEWEB-0252 can be tracked NOW for your location showing map with azimuth and elevation plus other details from your city location.

Track the satellite on the map from your city or location and see movement details for azimuth, elevation, latitude, longitude, range, height, and movement on the map or in text.







IsCatalogInMostPopularTable: catalog: 48970, numindb: 4
Update: records affected: 1



GetName: 48970 ONEWEB-0252

Hit Count: updated at: Sat, 31 Jul 2021 14:23:32 GMT